User: anonymous   Login
Location: Carnetin
(48.9010°N, 2.7059°E)
Time: 12:42:03
(UTC+00:00)
Language:

Cosmos 1844 Rocket - Orbit

View from above orbital plane
View from above orbital plane
View from above satellite
View from above satellite

Ground track
Ground track

The orbit data is extracted from the following two-line orbital elements,

1 17974U 87041B   22025.95074488  .00000030  00000-0  38398-4 0  9992
2 17974  71.0094 322.1827 0014749 333.3133  91.4969 14.17283080795003
Epoch (UTC): 25 January 2022 22:49:04
Eccentricity: 0.0014749
inclination: 71.0094°
perigee height: 824 km
apogee height: 845 km
right ascension of ascending node: 322.1827°
argument of perigee: 333.3133°
revolutions per day: 14.17283080
mean anomaly at epoch: 91.4969°
orbit number at epoch: 79500

The dashed part of the orbit path shows where the satellite is in the earth's shadow,  

DLR